Flag for Canada Weather past 2 weeks in Wood Buffalo, Alberta, Canada

Now
-13 °F

Extremely cold.


Feels Like: -29 °F
Forecast: -18 / -9 °F
Wind: 7 mph from East

Location: Fort McMurray CS

Current Time: Dec 26, 2014 at 11:05:03 PM

Latest Report: Dec 26, 2014 at 10:00 PM


Visibility: N/A

Pressure: 30.27 "Hg

Humidity: 82%

Dew point: -17 °F

Location of Wood BuffaloLocation

Historic Weather in Wood Buffalo — Graph

°F

Wood Buffalo temperature yesterday

Maximum temperature yesterday: -8 °F (at 12:00 AM)
Minimum temperature yesterday: -28 °F (at 7:00 AM)
Average temperature yesterday: -15 °F

Past Weeks' High & Low Weather Summary

 TemperatureHumidityPressure
High26 °F (Dec 12, 5:00 AM)100% (Dec 12, 11:00 AM)30.40 "Hg (Dec 12, 11:00 AM)
Low-28 °F (Dec 25, 7:00 AM)71% (Dec 25, 7:00 AM)29.49 "Hg (Dec 21, 6:00 AM)
Average12 °F91%29.98 "Hg
* Reported Dec 11 10:00 PM — Dec 26 10:00 PM, Wood Buffalo, Weather by CustomWeather, © 2014

Note: Actual official high and low records may vary slightly from our data, if they occured in-between our weather recording intervals... More about our weather records

Advertising

Wood Buffalo weather history for previous 24 hours

 ConditionsComfort  
Time TempWeatherWind HumidityBarometerVisibility
10:00 PM
Dec 26
-13 °FExtremely cold.7 mph82%30.27 "HgN/A
9:00 PM-21 °FExtremely cold.2 mph78%30.30 "HgN/A
8:00 PM-23 °FExtremely cold.1 mph76%30.32 "HgN/A
7:00 PM-19 °FExtremely cold.6 mph88%30.29 "HgN/A
6:00 PM-19 °FExtremely cold.No wind71%30.32 "HgN/A
5:00 PM-15 °FExtremely cold.No wind84%30.30 "HgN/A
4:00 PM-11 °FExtremely cold.2 mph82%30.30 "HgN/A
3:00 PM-5 °FFrigid.No wind76%30.29 "HgN/A
2:00 PM-6 °FFrigid.2 mph81%30.30 "HgN/A
1:00 PM-6 °FFrigid.1 mph78%30.31 "HgN/A
12:00 PM-7 °FFrigid.No wind85%30.31 "HgN/A
11:00 AM-8 °FFrigid.2 mph84%30.32 "HgN/A
10:00 AM-8 °FFrigid.1 mph84%30.32 "HgN/A
9:00 AM-7 °FFrigid.2 mph84%30.30 "HgN/A
8:00 AM-8 °FFrigid.1 mph83%30.29 "HgN/A
7:00 AM-6 °FFrigid.No wind84%30.30 "HgN/A
6:00 AM-8 °FFrigid.3 mph82%30.29 "HgN/A
5:00 AM-8 °FFrigid.2 mph84%30.28 "HgN/A
4:00 AM-9 °FFrigid.3 mph83%30.29 "HgN/A
3:00 AM-9 °FFrigid.3 mph83%30.28 "HgN/A
2:00 AM-9 °FFrigid.3 mph82%30.28 "HgN/A
1:00 AM-10 °FExtremely cold.1 mph82%30.30 "HgN/A
12:00 AM-11 °FExtremely cold.1 mph81%30.31 "HgN/A
11:00 PM
Dec 25
-10 °FExtremely cold.2 mph83%30.31 "HgN/A
Weather by CustomWeather, © 2014

See weather overviewHow to use our weather pages